User: anonymous   Login
Location: Arrakis Observatory
(44.1122°N, 95.7153°W)
Time: 16:42:29
(UTC-05:00)
Language:

Iridium 35 - Orbit

View from above orbital plane
View from above orbital plane
View from above satellite
View from above satellite

Ground track
Ground track

The orbit data is extracted from the following two-line orbital elements,

1 24966U 97056B   17233.22909654  .00000137  00000-0  41732-4 0  9999
2 24966  86.3951 291.5009 0002257  94.2602 265.8852 14.34218944 41850
Epoch (UTC): 21 August 2017 05:29:53
Eccentricity: 0.0002257
inclination: 86.3951°
perigee height: 776 km
apogee height: 779 km
right ascension of ascending node: 291.5009°
argument of perigee: 94.2602°
revolutions per day: 14.34218944
mean anomaly at epoch: 265.8852°
orbit number at epoch: 4185

The dashed part of the orbit path shows where the satellite is in the earth's shadow,  

DLR